Temp
3 3 4 4 4 4 4 4 4 4 4 5 5 6 6 6 7 7 7 8 8 8 8 8 8 8 9 9 9 9 10 11 11 12 10 11 11 10
3 3 4 4 4 3 3 4 4 4 4 5 5 6 6 7 7 7 7 6 7 8 7 7 7 7 7 8 9 9 9 11 11 11 11 11 10 10
2 2 2 3 3 4 3 3 3 4 3 4 4 5 7 7 7 7 7 6 6 6 7 7 7 7 7 7 9 7 8 10 11 11 11 10 10 10
2 1 1 2 2 3 3 3 3 3 3 3 3 4 4 5 6 6 7 7 7 6 7 7 7 7 7 7 7 7 8 9 10 10 10 10 10 10
3 2 2 0 0 1 0 1 2 2 3 3 3 3 4 4 5 6 6 7 7 7 6 6 7 7 7 7 6 7 8 9 9 10 10 10 10 9
3 3 2 2 -1 -1 0 1 1 1 2 2 2 3 3 4 4 5 5 6 7 7 7 6 6 6 6 6 7 8 8 9 9 9 9 9 10 10
2 3 2 -1 -1 0 1 1 1 1 1 2 2 3 3 3 3 4 4 4 7 7 7 6 6 6 6 6 6 7 7 9 9 9 9 9 9 9
2 2 -0 -0 -1 0 1 0 0 1 1 1 2 2 3 3 3 3 3 3 4 5 5 6 6 6 6 6 6 6 7 8 9 9 9 9 10 10
2 1 -1 -2 -1 -0 0 1 1 1 1 1 1 2 3 2 2 2 3 3 3 4 5 5 5 6 6 6 6 6 6 7 8 8 8 8 8 8
1 1 1 0 -2 -1 -0 0 0 0 1 1 1 1 2 2 2 2 3 3 4 4 4 4 5 5 6 6 6 6 7 7 7 7 8 8 8 8
2 1 1 1 -1 -2 -1 -0 1 1 -0 0 1 1 1 1 1 2 2 3 3 4 4 4 4 4 5 6 5 5 6 6 6 7 7 7 7 7
2 2 1 0 -0 -2 -1 -0 -0 1 1 0 0 -0 -0 1 1 1 1 2 2 2 3 3 3 3 4 4 6 5 5 5 5 6 6 6 6 7
2 2 1 1 0 -0 -1 -1 -1 -1 -0 -1 -1 -0 -1 -1 -0 -1 -0 0 1 1 1 2 2 2 3 3 3 4 4 4 4 4 4 4 5 5
2 2 1 1 1 -1 -1 -1 -2 -1 -2 -1 -2 -1 -2 -1 -1 -1 -1 -1 -1 -1 -0 0 -0 1 1 1 2 2 3 3 3 3 3 3 3 3
1 1 1 1 0 -0 -2 -2 -3 -2 -2 -2 -3 -2 -2 -3 -1 -2 -2 -2 -2 -2 -2 -2 -1 -1 -1 -1 -1 -0 -0 0 1 1 1 1 1 2
1 -0 -0 -1 -1 -1 -1 -2 -4 -4 -4 -3 -3 -3 -3 -3 -2 -3 -2 -2 -3 -3 -3 -4 -3 -2 -3 -2 -2 -2 -2 -2 -2 -2 -1 -1 -1 -0
-1 -1 -1 -1 -2 -1 -2 -3 -4 -4 -4 -4 -4 -4 -4 -5 -5 -6 -6 -5 -5 -7 -6 -6 -4 -3 -3 -3 -3 -3 -3 -2 -2 -2 -2 -1 -1 -1
-2 -1 -1 -2 -2 -2 -3 -3 -4 -4 -5 -5 -5 -5 -5 -5 -6 -7 -7 -7 -7 -7 -7 -7 -7 -6 -6 -5 -4 -4 -5 -5 -4 -5 -4 -3 -2 -2
-2 -1 -1 -2 -3 -3 -3 -4 -4 -5 -5 -5 -6 -5 -6 -6 -6 -7 -8 -8 -7 -7 -7 -7 -7 -7 -7 -7 -7 -7 -6 -6 -6 -5 -5 -5 -3 -2
-2 -1 -1 -2 -3 -4 -4 -4 -5 -5 -5 -5 -6 -6 -6 -6 -6 -7 -8 -8 -8 -8 -8 -7 -7 -7 -7 -8 -8 -7 -8 -7 -7 -7 -5 -4 -4 -3
-1 -1 -2 -3 -3 -4 -5 -5 -6 -5 -6 -6 -6 -6 -7 -7 -7 -7 -8 -8 -8 -8 -8 -8 -8 -8 -8 -8 -7 -7 -7 -8 -7 -6 -6 -4 -4 -4
-2 -2 -2 -3 -4 -5 -5 -6 -7 -7 -6 -6 -7 -7 -7 -7 -8 -8 -8 -8 -8 -8 -8 -8 -8 -8 -8 -8 -7 -8 -8 -7 -7 -6 -5 -6 -5 -5
-2 -2 -3 -3 -4 -5 -6 -6 -7 -6 -6 -7 -7 -7 -8 -8 -8 -8 -7 -8 -8 -8 -8 -8 -8 -8 -8 -8 -8 -8 -8 -7 -6 -6 -6 -6 -6 -6
Height
1447 1447 1446 1446 1445 1445 1444 1443 1442 1437 1428 1427 1425 1425 1424 1424 1422 1421 1418 1416 1414 1412 1411 1409 1407 1406 1406 1405 1404 1402 1401 1403 1408 1410 1411 1420 1426 1431
1442 1441 1441 1440 1440 1439 1438 1437 1437 1434 1428 1425 1420 1418 1418 1417 1416 1415 1412 1409 1406 1404 1401 1399 1398 1396 1394 1394 1394 1393 1390 1390 1393 1400 1404 1406 1411 1420
1438 1436 1435 1435 1433 1433 1432 1431 1430 1429 1425 1418 1418 1414 1411 1411 1409 1408 1406 1403 1399 1395 1392 1391 1389 1387 1385 1384 1383 1385 1383 1383 1382 1386 1395 1394 1397 1410
1432 1430 1429 1428 1426 1425 1424 1422 1422 1422 1420 1414 1412 1410 1408 1406 1404 1401 1399 1396 1392 1387 1383 1381 1380 1378 1376 1374 1373 1375 1374 1375 1375 1380 1383 1389 1399 1401
1427 1424 1422 1421 1418 1417 1417 1415 1414 1413 1413 1410 1406 1405 1402 1401 1398 1395 1392 1388 1386 1382 1377 1374 1372 1370 1368 1366 1365 1365 1365 1366 1369 1375 1382 1386 1393 1397
1421 1419 1416 1414 1413 1412 1411 1409 1408 1407 1406 1404 1402 1399 1398 1395 1393 1389 1384 1381 1378 1376 1373 1369 1366 1364 1362 1359 1358 1358 1352 1357 1362 1367 1373 1378 1384 1389
1417 1414 1411 1410 1409 1408 1406 1403 1402 1400 1399 1398 1396 1394 1391 1390 1388 1384 1380 1376 1372 1371 1368 1365 1361 1357 1355 1352 1348 1349 1347 1351 1356 1360 1365 1371 1377 1381
1411 1409 1406 1404 1403 1401 1400 1399 1396 1394 1393 1392 1390 1389 1386 1385 1382 1380 1376 1373 1368 1367 1365 1361 1357 1352 1350 1347 1345 1344 1343 1347 1351 1355 1359 1363 1368 1373
1406 1404 1401 1400 1397 1395 1393 1391 1390 1388 1387 1385 1384 1383 1380 1379 1377 1374 1373 1369 1366 1363 1361 1358 1355 1351 1347 1347 1346 1344 1344 1345 1348 1352 1355 1360 1363 1367
1402 1399 1396 1393 1392 1390 1386 1384 1383 1382 1380 1378 1377 1375 1373 1372 1370 1368 1366 1363 1361 1359 1356 1354 1354 1351 1349 1347 1345 1344 1344 1346 1349 1350 1353 1356 1359 1361
1397 1394 1391 1389 1387 1384 1381 1379 1376 1375 1374 1371 1370 1368 1367 1365 1363 1363 1361 1359 1355 1354 1353 1350 1349 1348 1346 1345 1344 1343 1343 1344 1346 1349 1351 1354 1355 1358
1392 1389 1386 1384 1382 1379 1376 1373 1370 1368 1367 1366 1363 1362 1360 1357 1356 1355 1354 1352 1351 1348 1347 1347 1345 1345 1343 1340 1340 1340 1341 1342 1343 1345 1347 1349 1350 1352
1386 1384 1382 1379 1377 1374 1371 1368 1366 1363 1361 1359 1357 1355 1354 1351 1349 1348 1347 1346 1344 1342 1341 1341 1340 1339 1339 1338 1338 1338 1339 1339 1340 1340 1341 1343 1344 1346
1380 1378 1376 1374 1371 1369 1366 1364 1361 1359 1357 1354 1352 1350 1349 1346 1344 1343 1341 1340 1338 1337 1335 1335 1335 1334 1334 1334 1335 1335 1335 1335 1335 1335 1336 1337 1338 1339
1374 1372 1370 1368 1366 1363 1362 1359 1357 1354 1352 1350 1348 1346 1343 1341 1337 1339 1337 1335 1334 1332 1331 1330 1330 1329 1329 1329 1329 1330 1330 1330 1330 1331 1331 1332 1333 1334
1367 1365 1363 1362 1360 1358 1356 1355 1353 1350 1347 1345 1343 1341 1339 1336 1334 1334 1333 1330 1330 1328 1327 1326 1325 1325 1325 1324 1325 1325 1325 1326 1326 1326 1327 1327 1327 1327
1360 1358 1357 1356 1354 1352 1350 1349 1348 1346 1343 1341 1339 1336 1335 1334 1332 1331 1329 1327 1327 1326 1323 1323 1322 1321 1321 1321 1321 1321 1321 1321 1322 1322 1322 1322 1323 1322
1351 1349 1349 1349 1348 1346 1344 1343 1342 1341 1338 1336 1335 1333 1331 1330 1329 1328 1327 1326 1325 1324 1322 1321 1319 1318 1319 1318 1318 1318 1318 1318 1318 1319 1318 1317 1318 1316
1341 1341 1341 1341 1341 1339 1339 1338 1337 1335 1333 1332 1331 1329 1328 1327 1326 1326 1325 1324 1323 1322 1321 1318 1318 1316 1317 1317 1316 1315 1315 1315 1315 1314 1314 1312 1311 1311
1332 1333 1333 1333 1333 1333 1332 1332 1332 1330 1328 1328 1326 1325 1325 1324 1322 1322 1322 1321 1320 1320 1319 1317 1316 1313 1314 1313 1313 1313 1311 1311 1310 1309 1309 1309 1309 1308
1324 1326 1326 1326 1326 1326 1326 1326 1326 1325 1324 1323 1322 1321 1321 1320 1319 1319 1318 1318 1318 1318 1316 1315 1314 1312 1311 1311 1310 1310 1309 1307 1306 1305 1305 1305 1306 1306
1316 1317 1318 1319 1319 1319 1319 1319 1320 1320 1319 1319 1319 1318 1317 1317 1317 1316 1316 1315 1315 1315 1314 1312 1312 1310 1309 1308 1308 1308 1306 1303 1303 1303 1303 1304 1305 1304
1308 1309 1310 1310 1311 1311 1311 1312 1313 1314 1314 1314 1315 1315 1315 1315 1314 1314 1312 1313 1312 1311 1311 1310 1309 1308 1307 1307 1307 1306 1304 1302 1302 1302 1302 1302 1303 1302
Wind_Speed
20 19 18 18 19 19 20 20 22 26 36 32 32 30 26 25 21 20 24 27 28 30 32 34 35 38 38 44 42 45 47 43 52 51 56 54 57 50
17 20 21 19 21 20 20 21 23 25 31 33 34 31 28 25 22 23 25 26 29 30 31 32 32 34 34 35 41 41 43 49 44 55 55 49 49 46
19 20 21 22 25 25 25 25 24 25 28 33 31 32 31 28 23 23 22 24 26 28 27 28 31 33 36 35 42 39 40 39 46 41 37 30 36 39
21 21 21 22 25 26 28 30 32 30 29 32 33 32 29 27 24 22 21 24 27 26 28 31 29 30 30 32 32 48 36 38 39 39 27 26 30 33
22 24 25 25 24 23 23 25 26 25 26 27 32 30 31 27 27 24 22 23 23 24 26 25 25 24 24 31 29 30 38 31 35 35 30 30 35 35
24 23 23 21 20 20 21 23 23 23 24 26 27 29 29 28 24 24 27 22 24 20 21 19 19 20 24 24 32 32 22 26 28 31 26 29 32 33
21 21 20 16 15 18 20 23 25 26 26 24 26 28 30 28 26 26 27 29 24 20 19 16 18 19 20 17 16 20 7 16 23 25 26 27 28 29
22 21 18 17 15 17 19 20 20 23 22 24 29 30 29 29 29 27 28 27 23 17 20 19 18 17 13 12 14 16 5 9 13 17 21 26 29 33
20 21 19 18 17 20 20 20 20 21 26 28 29 27 30 29 30 30 25 24 25 24 23 24 19 16 8 9 9 9 9 6 10 13 16 20 24 26
20 21 20 19 18 19 22 21 19 18 18 20 25 29 30 31 28 27 26 26 24 22 18 21 17 18 16 11 7 7 7 10 13 14 16 19 20 21
19 19 20 20 19 20 21 23 22 20 18 19 20 23 26 27 27 26 24 23 24 21 19 19 21 19 16 15 17 13 10 9 11 12 14 15 16 18
18 18 20 19 18 20 20 21 22 21 21 19 18 21 22 23 24 24 23 22 21 20 18 14 14 13 11 14 17 16 17 19 19 19 18 19 19 22
19 18 18 20 20 19 19 19 19 20 20 19 20 19 19 19 19 20 18 19 19 18 19 19 18 14 13 15 14 14 14 15 16 17 18 19 21 22
17 17 18 18 19 18 19 20 20 20 19 19 19 19 19 17 17 18 17 16 15 16 17 16 14 14 14 15 14 14 15 16 18 19 18 19 21 22
20 19 19 19 19 20 19 19 18 18 19 18 18 18 17 17 17 18 18 16 15 14 14 13 14 14 14 13 13 13 13 14 16 18 18 18 19 20
22 22 21 20 20 20 19 18 18 18 18 18 17 17 16 14 13 13 12 10 9 11 10 11 11 12 11 12 13 12 13 10 10 10 12 15 16 18
23 24 22 20 20 18 18 19 20 19 17 16 15 14 13 11 10 9 8 7 6 6 5 7 8 8 9 9 9 9 10 10 11 12 13 14 14 17
24 25 23 21 20 18 18 18 18 19 16 14 14 13 12 11 10 9 7 5 5 5 5 6 6 4 2 3 3 4 4 4 4 7 10 13 10 10
27 25 23 21 20 18 17 17 18 17 15 14 12 12 11 10 9 8 8 6 6 6 6 5 5 4 5 5 4 2 4 4 9 10 10 11 9 5
28 26 22 20 20 19 18 17 16 15 14 13 12 11 11 11 9 8 8 6 5 6 7 6 5 4 7 8 8 6 6 8 10 11 9 7 7 6
29 25 23 20 19 20 21 19 18 15 14 13 12 11 10 10 8 8 7 6 7 9 8 7 7 6 8 9 9 8 10 13 13 8 5 5 3 3
29 26 23 22 21 22 20 20 17 15 16 14 13 11 11 10 9 9 8 7 8 8 9 7 7 7 7 6 8 11 14 7 4 6 5 5 4 2
30 30 27 24 22 22 20 19 16 15 15 14 13 11 10 9 9 8 8 9 8 7 8 8 6 6 5 6 9 12 9 5 1 4 5 4 5 7
Wind_Direction
274 279 282 294 293 295 291 288 290 294 295 301 304 309 310 308 306 308 304 293 287 281 281 278 276 280 281 266 267 266 263 268 247 246 240 243 244 236
286 277 272 279 285 291 289 286 283 284 288 294 298 301 305 304 302 304 301 313 294 286 283 282 281 283 281 269 263 272 264 256 254 245 252 231 234 229
290 287 283 277 274 276 276 280 281 281 286 287 289 294 299 299 300 302 306 305 311 298 281 287 282 275 281 269 264 274 259 258 252 241 233 208 214 230
290 285 284 282 275 275 276 273 268 271 277 284 290 295 300 304 304 303 304 305 308 313 298 281 281 280 285 265 270 274 259 247 245 236 248 233 232 236
309 303 295 287 284 286 285 287 281 280 276 281 284 292 297 302 309 304 305 310 303 310 314 286 277 279 287 270 264 276 255 241 234 238 240 239 243 240
304 303 301 298 306 301 298 291 287 282 275 279 284 289 296 303 305 309 309 314 320 314 316 300 290 281 280 280 260 272 246 242 234 241 238 237 235 230
304 304 303 305 304 300 297 298 285 279 281 280 281 286 294 300 305 310 309 312 309 319 317 312 311 291 282 291 274 277 242 233 234 235 237 238 243 244
308 308 306 302 295 293 295 290 283 269 275 275 280 285 291 293 301 300 308 313 314 314 315 320 318 300 299 296 301 299 268 222 231 232 234 238 242 243
308 308 306 300 296 295 294 295 291 276 269 272 276 281 284 288 295 298 301 302 300 300 305 305 311 319 312 286 270 284 293 279 250 238 235 237 236 237
309 307 304 301 296 296 298 302 301 292 284 276 270 270 276 282 285 288 294 296 296 299 302 300 302 299 300 297 289 285 265 262 256 239 234 237 241 241
306 304 304 301 298 288 293 299 300 298 289 278 276 274 276 280 282 284 286 287 291 294 294 293 292 296 289 287 282 270 262 251 245 249 251 251 254 257
303 305 303 300 299 295 299 300 303 302 300 291 282 279 278 277 279 281 280 281 282 288 284 285 288 294 285 266 264 269 269 263 263 263 262 251 245 247
302 306 307 307 305 301 300 299 300 303 305 301 295 291 287 284 281 278 275 274 274 270 267 272 274 269 261 271 275 267 265 270 263 255 257 260 258 254
298 299 303 305 305 304 299 298 298 300 302 301 295 289 286 284 282 281 278 274 270 271 271 270 265 261 256 258 259 262 269 265 259 254 251 255 260 261
293 295 297 299 302 302 297 293 292 299 299 299 299 297 293 290 291 284 282 279 276 273 274 271 269 266 258 257 258 265 269 263 260 257 254 250 248 250
289 292 294 295 295 296 294 292 290 293 296 299 299 299 299 298 295 289 285 279 266 262 267 272 268 265 269 269 266 268 271 261 258 263 266 266 264 259
277 280 284 287 287 287 287 289 290 289 289 290 290 290 293 295 296 300 299 290 281 292 285 286 283 274 264 261 265 264 260 267 270 270 267 265 267 269
269 274 279 281 282 284 283 285 285 288 288 288 288 288 289 293 295 296 295 295 294 294 309 314 321 326 295 234 256 255 266 283 274 291 295 289 282 267
262 268 273 277 276 278 280 283 286 285 282 279 276 283 286 288 285 287 287 287 280 285 295 303 314 327 341 320 281 292 259 273 284 285 284 287 298 273
256 262 273 278 274 275 275 278 283 283 280 276 276 278 282 281 281 275 274 282 299 300 294 296 287 293 304 307 302 282 309 308 301 298 300 293 302 293
257 261 272 274 275 276 274 271 272 277 271 267 270 274 276 275 271 269 267 264 266 276 284 290 290 284 284 290 294 304 301 292 285 288 306 312 321 272
260 267 271 271 271 270 266 258 259 265 269 264 264 271 274 274 265 257 261 260 263 275 285 292 285 283 275 282 300 302 309 313 272 285 286 291 301 313
262 267 272 274 269 267 260 251 251 261 257 252 253 258 257 263 268 269 266 262 272 281 284 291 285 278 270 284 291 301 310 321 277 270 282 259 255 263